Al Farabi 2
1 43805U 18099AZ 23271.71113038 .00010272 00000-0 74696-3 0 9993
2 43805 97.5520 332.6050 0013761 109.6241 250.6471 15.03937727263303
CHOMPTT
1 43855U 18104G 23271.60262847 .00038746 00000-0 77947-3 0 9994
2 43855 85.0219 95.4788 0009003 291.7554 68.2742 15.46401130266523
ISAT
1 43879U 18111D 23271.74448872 .00009969 00000-0 72440-3 0 9995
2 43879 97.6339 174.7973 0014701 165.0780 195.0882 15.03963170257875
UWE-4
1 43880U 18111E 23271.69108522 .00009289 00000-0 68072-3 0 9997
2 43880 97.6225 175.3016 0018070 177.3164 182.8162 15.03622626257919
Sparrow
1 43881U 18111F 23271.52653478 .00009368 00000-0 67499-3 0 9995
2 43881 97.6400 176.0605 0009624 204.0651 156.0126 15.04351337257913
Lume 1
1 43908U 18111AJ 23271.66284783 .00063277 00000-0 91410-3 0 9998
2 43908 97.1182 153.8902 0010745 163.9628 196.1970 15.55679913265427
FO-99
1 43937U 19003F 23271.58352948 .00184405 00000-0 13587-2 0 9996
2 43937 97.0724 298.6277 0006452 223.5495 136.5260 15.72466478262176
AstroCast 0.2
1 44083U 19018F 23271.71560037 .00210296 00000-0 17733-2 0 9995
2 44083 97.2510 333.4643 0005681 198.3239 161.7820 15.69144864250534
AISTechSat 3
1 44103U 19018AB 23271.70632689 .00044649 00000-0 85305-3 0 9998
2 44103 97.2405 329.8309 0006375 247.6840 112.3735 15.47961243250480
AISat 1
1 44104U 19018AC 23271.54885503 .00036061 00000-0 58418-3 0 9990
2 44104 97.3732 5.1279 0034849 238.4300 121.3548 15.52001147251725
Prox-1
1 44339U 19036A 23271.70693018 .00008701 00000-0 16975-2 0 9997
2 44339 23.9996 105.7082 0009819 330.4823 29.5115 14.60885549226830
Move-IIb
1 44398U 19038N 23271.70821730 .00137332 00000-0 18921-2 0 9994
2 44398 97.6647 260.5582 0003912 253.6069 106.4755 15.56750247234675
SONATE
1 44400U 19038Q 23271.62149419 .00015994 00000-0 66535-3 0 9990
2 44400 97.6940 251.6230 0017788 316.5867 43.3968 15.23714883233974
BeeSat 9
1 44412U 19038AC 23271.75870430 .00040404 00000-0 11480-2 0 9993
2 44412 97.6818 256.2706 0010271 305.2457 54.7824 15.36013953234028
JAISAT-1
1 44419U 19038F 23271.75515096 .00039421 00000-0 11129-2 0 9991
2 44419 97.6807 257.3861 0009480 300.7935 59.2374 15.36228634234404
Taurus 1
1 44530U 19059C 23271.75156146 .00005460 00000-0 13870-2 0 9996
2 44530 98.5609 21.2466 0013824 136.2932 223.9359 14.51098029213659
Duchifat 3
1 44854U 19089C 23271.16128023 .00011974 00000-0 76330-3 0 9994
2 44854 36.9606 195.0338 0005413 80.4746 279.6609 15.08165103208445
OPS-SAT
1 44878U 19092F 23271.50322141 .00037107 00000-0 92111-3 0 9990
2 44878 97.4707 101.9777 0008463 119.7589 240.4500 15.40220479209662
TO-108
1 44881U 19093C 23271.75533154 .00001724 00000-0 21927-3 0 9993
2 44881 97.8548 348.4250 0016055 99.7419 260.5609 14.82797678204148
FloripaSat 1
1 44885U 19093G 23271.76061194 .00005650 00000-0 64012-3 0 9992
2 44885 97.8632 351.8046 0014696 100.4574 259.8299 14.86709399204332
RS-44
1 44909U 19096E 23271.50014276 .00000028 00000-0 74871-4 0 9992
2 44909 82.5163 279.2949 0216480 305.6172 52.4932 12.79722914175372
BY70-2
1 45857U 20042B 23271.72049283 .00028614 00000-0 26022-2 0 9992
2 45857 97.9213 352.2696 0007615 32.2212 327.9472 14.95142896174988
UPMSat 2
1 46276U 20061E 23271.14564176 .00012244 00000-0 48671-3 0 9995
2 46276 97.3370 336.6550 0001254 46.5686 313.5657 15.25438653169975
AmicalSat
1 46287U 20061R 23271.59983530 .00018234 00000-0 77742-3 0 9991
2 46287 97.3902 336.3011 0003392 95.7374 264.4250 15.22985113169431
SALSAT
1 46495U 20068K 23271.41867691 .00007007 00000-0 44818-3 0 9993
2 46495 97.7784 220.6330 0016634 125.0619 235.2172 15.08810698164630
CAPE 3
1 47309U 21002A 23271.71374899 .00066489 00000-0 11515-2 0 9999
2 47309 60.6750 18.2428 0018596 355.6182 4.4752 15.50278584150286
AO-109
1 47311U 21002C 23271.73540441 .00045366 00000-0 92975-3 0 9993
2 47311 60.6803 18.6740 0015778 357.3281 2.7729 15.45642113150267
ExoCube 2
1 47319U 21002L 23271.60162112 .00044405 00000-0 94402-3 0 9992
2 47319 60.6781 21.8732 0016608 356.0848 4.0116 15.44560622150151
UVSQ-SAT
1 47438U 21006AB 23271.69847006 .00022526 00000-0 82394-3 0 9996
2 47438 97.3730 327.4977 0010404 80.3601 279.8813 15.28021093148432
YUSAT 1
1 47439U 21006AC 23271.38839422 .00030012 00000-0 97800-3 0 9993
2 47439 97.3738 328.4281 0009420 79.1339 281.0963 15.31732718148461
SOMP 2b
1 47445U 21006AJ 23271.61111906 .00020535 00000-0 77242-3 0 9993
2 47445 97.3697 326.4906 0010420 85.5920 274.6509 15.27116469148382
IDEASSat
1 47458U 21006AX 23271.11639079 .00021441 00000-0 82862-3 0 9999
2 47458 97.3795 326.8034 0009854 86.7121 273.5245 15.26215265148283
CubeSX-Sirius-HSE
1 47951U 21022V 23271.74622251 .00014674 00000-0 77188-3 0 9993
2 47951 97.4828 167.4848 0017279 343.6017 16.4654 15.15626687138706
CubeSX-HSE
1 47952U 21022W 23271.71481141 .00014726 00000-0 77306-3 0 9992
2 47952 97.4831 167.5109 0017150 343.4482 16.6189 15.15697426138708
KSU-Cubesat
1 47954U 21022Y 23271.69968916 .00016260 00000-0 82618-3 0 9998
2 47954 97.4835 168.0338 0016289 342.3060 17.7603 15.16838031138451
GRBAlpha
1 47959U 21022AD 23271.76170698 .00013270 00000-0 69543-3 0 9993
2 47959 97.4833 167.6577 0016962 343.7182 16.3504 15.15786960137537
Orbicraft-Zorkiy
1 47960U 21022AE 23271.73188342 .00016331 00000-0 83350-3 0 9990
2 47960 97.4866 168.2198 0016526 341.9274 18.1370 15.16678094138248
STECCO
1 47962U 21022AG 23271.73095055 .00030586 00000-0 12315-2 0 9990
2 47962 97.4838 171.6316 0009975 332.4913 27.5795 15.24771370137798
MO-110
1 47964U 21022AJ 23271.52068943 .00032960 00000-0 12840-2 0 9996
2 47964 97.4853 172.1846 0011359 325.7603 34.2901 15.25845217137800
FEES
1 48082U 21022AL 23271.23830085 .00065874 00000-0 18100-2 0 9995
2 48082 97.4828 174.4459 0005321 327.1902 32.9011 15.36969214137633
TUBIN
1 48900U 21059X 23271.68377136 .00012322 00000-0 55085-3 0 9990
2 48900 97.6136 46.1654 0007611 283.0582 76.9803 15.21444404124902
IT-SPINS
1 49017U 21013G 23271.30460529 .00054647 00000-0 92287-3 0 9999
2 49017 51.5877 290.1852 0008097 6.4217 353.6874 15.51048518125661
LEDSAT
1 49069U 21073D 23271.74482268 .00013009 00000-0 67184-3 0 9999
2 49069 97.4737 340.9494 0024229 120.5595 239.8033 15.16173365116583
CUTE
1 49263U 21088D 23271.16148837 .00011022 00000-0 66673-3 0 9993
2 49263 97.5351 335.2684 0015519 268.2914 91.6538 15.10710598109829
TeikyoSat 4
1 49396U 21102B 23271.69372035 .00003604 00000-0 27383-3 0 9996
2 49396 97.5008 320.4472 0014405 89.2907 270.9969 15.02693261103318
Z-Sat
1 49399U 21102E 23271.72476393 .00004170 00000-0 29157-3 0 9995
2 49399 97.4741 321.6340 0023449 77.9380 282.4473 15.05606232103467
KOSEN 1
1 49402U 21102H 23271.60372871 .00006072 00000-0 40052-3 0 9993
2 49402 97.4673 322.2217 0022071 66.7886 293.5663 15.07622418103531
HO-113
1 50466U 21131B 23271.77397165 .00000949 00000-0 32129-3 0 9991
2 50466 98.5469 352.9815 0004343 175.7290 184.3936 14.39073982 92250
Tevel-3
1 50988U 22002E 23271.69815006 .00028750 00000-0 99276-3 0 9994
2 50988 97.4233 338.2256 0006428 218.0594 142.0193 15.29890222 94562
